This is the latest recevied weather packets stored in our database for station/object KF0JHJ. If no packets are shown the sender has not sent any weather packets the latest 10 day(s).
| Time | Temp. | Humidity | Pressure | Rain* | Wind** | Luminosity | Snow |
|---|---|---|---|---|---|---|---|
| 1777682538 | 10° C | 41% | 1016.2 hPa | - | - | 15 W/m² | - |
| 1777682236 | 10° C | 40% | 1016.3 hPa | - | - | 17 W/m² | - |
| 1777681933 | 10° C | 41% | 1016.1 hPa | - | - | 17 W/m² | - |
| 1777681628 | 10.56° C | 40% | 1016.2 hPa | - | - | 22 W/m² | - |
| 1777681327 | 10.56° C | 39% | 1016.2 hPa | - | - | 24 W/m² | - |
| 1777681024 | 10.56° C | 40% | 1016.2 hPa | - | - | 26 W/m² | - |
| 1777680721 | 10.56° C | 40% | 1016.2 hPa | - | - | 28 W/m² | - |
| 1777680419 | 10.56° C | 39% | 1016.1 hPa | - | - | 31 W/m² | - |
| 1777680116 | 10.56° C | 39% | 1016.1 hPa | - | - | 29 W/m² | - |
| 1777679812 | 10.56° C | 40% | 1016 hPa | - | - | 34 W/m² | - |
| 1777679508 | 10.56° C | 39% | 1016.2 hPa | - | - | 37 W/m² | - |
| 1777679204 | 11.11° C | 38% | 1016.5 hPa | - | - | 48 W/m² | - |
| 1777678902 | 11.11° C | 39% | 1016.1 hPa | - | - | 55 W/m² | - |
| 1777678599 | 10.56° C | 39% | 1016.1 hPa | - | - | 61 W/m² | - |
| 1777678296 | 10.56° C | 39% | 1016.1 hPa | - | - | 61 W/m² | - |
| 1777677992 | 11.11° C | 39% | 1016.5 hPa | - | - | 59 W/m² | - |
| 1777677690 | 11.11° C | 40% | 1016 hPa | - | - | 65 W/m² | - |
| 1777677387 | 11.11° C | 38% | 1016.2 hPa | - | - | 65 W/m² | - |
| 1777677086 | 11.67° C | 39% | 1016 hPa | - | - | 65 W/m² | - |
| 1777676784 | 11.67° C | 38% | 1016 hPa | - | - | 75 W/m² | - |
| 1777676482 | 12.22° C | 38% | 1016.1 hPa | - | - | 109 W/m² | - |
| 1777676179 | 11.67° C | 39% | 1016.1 hPa | - | - | 218 W/m² | - |
| 1777675875 | 12.78° C | 35% | 1016 hPa | - | - | 232 W/m² | - |
| 1777675573 | 12.22° C | 35% | 1016.2 hPa | - | - | 309 W/m² | - |
| 1777675269 | 12.22° C | 37% | 1016.2 hPa | - | - | 253 W/m² | - |
* Rain since midnight (hover to see other rain measurements)
** Current wind speed in m/s (hover to see current wind gust speed)